QPF
0.00 0.00 0.00 0.00 0.00 0.00 0.00 0.00 0.00 0.00 0.00 0.00 0.00 0.00 0.00 0.00 0.00 0.00 0.00 0.00 0.01 0.01 0.01 0.01 0.01 0.02 0.02 0.02 0.03 0.03 0.03 0.04 0.05 0.04 0.04 0.04 0.05 0.08 0.07 0.04 0.02 0.01 0.03
0.00 0.00 0.00 0.00 0.00 0.00 0.00 0.00 0.00 0.00 0.00 0.00 0.01 0.00 0.00 0.00 0.00 0.00 0.00 0.01 0.01 0.01 0.01 0.01 0.01 0.01 0.01 0.01 0.01 0.02 0.02 0.03 0.03 0.04 0.04 0.03 0.05 0.08 0.09 0.06 0.05 0.03 0.04
0.00 0.00 0.00 0.00 0.00 0.00 0.00 0.00 0.00 0.00 0.00 0.00 0.00 0.00 0.00 0.00 0.00 0.01 0.01 0.01 0.01 0.01 0.00 0.01 0.01 0.01 0.01 0.01 0.01 0.02 0.03 0.04 0.04 0.05 0.04 0.01 0.03 0.08 0.09 0.06 0.04 0.04 0.06
0.00 0.00 0.00 0.00 0.00 0.00 0.00 0.00 0.01 0.00 0.00 0.01 0.01 0.00 0.00 0.00 0.00 0.01 0.01 0.01 0.01 0.00 0.00 0.01 0.01 0.01 0.00 0.00 0.01 0.02 0.03 0.04 0.06 0.06 0.05 0.03 0.02 0.04 0.05 0.05 0.03 0.03 0.03
0.00 0.00 0.00 0.00 0.00 0.00 0.00 0.00 0.00 0.00 0.01 0.01 0.00 0.00 0.01 0.01 0.01 0.01 0.01 0.00 0.00 0.00 0.00 0.00 0.00 0.00 0.00 0.01 0.01 0.02 0.03 0.05 0.07 0.07 0.05 0.03 0.02 0.03 0.03 0.03 0.03 0.04 0.04
0.00 0.00 0.00 0.00 0.00 0.00 0.00 0.00 0.00 0.01 0.01 0.01 0.01 0.01 0.01 0.01 0.01 0.01 0.01 0.00 0.00 0.00 0.00 0.00 0.00 0.00 0.00 0.01 0.01 0.02 0.03 0.05 0.07 0.07 0.04 0.02 0.02 0.02 0.01 0.02 0.03 0.03 0.04
0.00 0.00 0.00 0.00 0.00 0.00 0.00 0.00 0.01 0.01 0.01 0.01 0.01 0.01 0.01 0.01 0.01 0.01 0.02 0.01 0.01 0.00 0.00 0.00 0.00 0.00 0.01 0.01 0.01 0.02 0.03 0.05 0.06 0.05 0.04 0.02 0.01 0.01 0.01 0.02 0.02 0.02 0.03
0.01 0.00 0.00 0.00 0.00 0.00 0.00 0.01 0.01 0.01 0.01 0.01 0.01 0.01 0.01 0.01 0.01 0.01 0.02 0.01 0.01 0.01 0.00 0.00 0.00 0.00 0.00 0.01 0.01 0.01 0.03 0.05 0.07 0.07 0.06 0.03 0.01 0.01 0.01 0.01 0.01 0.02 0.02
0.01 0.00 0.00 0.01 0.01 0.00 0.00 0.00 0.01 0.01 0.01 0.01 0.01 0.01 0.01 0.01 0.02 0.01 0.02 0.01 0.01 0.01 0.01 0.01 0.00 0.00 0.00 0.00 0.01 0.02 0.03 0.06 0.07 0.13 0.08 0.02 0.02 0.02 0.01 0.01 0.01 0.01 0.01
0.03 0.01 0.01 0.01 0.01 0.00 0.00 0.00 0.00 0.00 0.00 0.01 0.01 0.01 0.02 0.02 0.02 0.02 0.03 0.02 0.02 0.01 0.01 0.02 0.01 0.00 0.00 0.00 0.01 0.02 0.05 0.07 0.09 0.15 0.13 0.05 0.04 0.02 0.02 0.01 0.01 0.01 0.01
0.07 0.02 0.01 0.01 0.01 0.01 0.01 0.01 0.01 0.01 0.01 0.01 0.01 0.02 0.03 0.04 0.04 0.03 0.03 0.03 0.02 0.02 0.02 0.02 0.02 0.01 0.00 0.00 0.01 0.03 0.05 0.11 0.16 0.19 0.15 0.11 0.07 0.04 0.02 0.01 0.01 0.00 0.01
0.16 0.07 0.02 0.01 0.01 0.02 0.02 0.02 0.02 0.02 0.02 0.03 0.03 0.03 0.04 0.06 0.05 0.05 0.04 0.04 0.04 0.02 0.02 0.02 0.02 0.01 0.01 0.01 0.02 0.03 0.06 0.13 0.24 0.28 0.16 0.10 0.07 0.05 0.03 0.02 0.01 0.01 0.01
0.24 0.15 0.07 0.04 0.02 0.03 0.04 0.04 0.05 0.05 0.04 0.04 0.03 0.04 0.04 0.04 0.05 0.05 0.04 0.03 0.02 0.01 0.01 0.01 0.01 0.01 0.02 0.03 0.04 0.05 0.08 0.13 0.30 0.29 0.18 0.10 0.07 0.05 0.03 0.02 0.02 0.02 0.01
0.22 0.20 0.15 0.08 0.05 0.05 0.05 0.05 0.05 0.04 0.02 0.02 0.01 0.02 0.02 0.03 0.03 0.04 0.04 0.02 0.01 0.01 0.01 0.01 0.01 0.02 0.03 0.04 0.06 0.08 0.10 0.12 0.15 0.18 0.15 0.09 0.08 0.07 0.04 0.03 0.02 0.02 0.02
0.20 0.15 0.14 0.12 0.09 0.08 0.06 0.05 0.03 0.02 0.02 0.02 0.01 0.02 0.03 0.03 0.03 0.04 0.04 0.03 0.02 0.02 0.01 0.02 0.01 0.02 0.03 0.04 0.05 0.07 0.09 0.10 0.10 0.13 0.12 0.08 0.07 0.07 0.06 0.05 0.04 0.03 0.03
0.27 0.17 0.12 0.09 0.08 0.08 0.07 0.05 0.03 0.02 0.02 0.02 0.03 0.02 0.03 0.02 0.03 0.02 0.02 0.02 0.02 0.02 0.01 0.02 0.02 0.02 0.02 0.04 0.05 0.06 0.07 0.09 0.08 0.07 0.06 0.05 0.05 0.06 0.07 0.08 0.06 0.04 0.03
0.37 0.26 0.14 0.09 0.09 0.11 0.07 0.03 0.02 0.02 0.02 0.03 0.06 0.03 0.02 0.02 0.02 0.01 0.01 0.01 0.01 0.01 0.01 0.01 0.02 0.02 0.03 0.03 0.04 0.05 0.07 0.10 0.07 0.06 0.05 0.04 0.03 0.04 0.05 0.06 0.07 0.06 0.04
0.42 0.35 0.22 0.13 0.11 0.08 0.03 0.03 0.03 0.02 0.02 0.02 0.03 0.02 0.02 0.02 0.01 0.01 0.00 0.01 0.01 0.00 0.01 0.01 0.02 0.01 0.01 0.02 0.02 0.03 0.03 0.07 0.08 0.04 0.04 0.04 0.03 0.03 0.03 0.05 0.07 0.08 0.07
0.38 0.31 0.24 0.20 0.11 0.06 0.04 0.04 0.04 0.03 0.03 0.03 0.02 0.02 0.01 0.01 0.01 0.01 0.00 0.01 0.01 0.01 0.00 0.01 0.01 0.01 0.00 0.01 0.02 0.02 0.02 0.02 0.03 0.03 0.04 0.04 0.04 0.04 0.03 0.04 0.05 0.06 0.08
0.33 0.25 0.20 0.23 0.18 0.12 0.08 0.06 0.06 0.06 0.06 0.05 0.03 0.01 0.01 0.01 0.00 0.01 0.01 0.01 0.01 0.00 0.00 0.00 0.00 0.00 0.00 0.01 0.01 0.01 0.01 0.01 0.02 0.02 0.04 0.05 0.04 0.04 0.04 0.03 0.03 0.04 0.05
0.33 0.26 0.18 0.15 0.13 0.11 0.08 0.06 0.05 0.04 0.03 0.03 0.02 0.01 0.01 0.00 0.00 0.00 0.01 0.00 0.00 0.00 0.00 0.00 0.00 0.00 0.00 0.00 0.01 0.01 0.01 0.02 0.02 0.02 0.02 0.03 0.03 0.02 0.03 0.03 0.03 0.03 0.03
0.27 0.22 0.15 0.14 0.10 0.08 0.08 0.05 0.05 0.03 0.03 0.03 0.02 0.01 0.01 0.01 0.01 0.01 0.00 0.00 0.00 0.00 0.01 0.01 0.00 0.00 0.00 0.00 0.00 0.01 0.01 0.02 0.02 0.02 0.02 0.03 0.03 0.03 0.03 0.03 0.03 0.03 0.04
0.19 0.16 0.12 0.11 0.08 0.06 0.06 0.05 0.06 0.04 0.02 0.02 0.02 0.02 0.02 0.01 0.01 0.01 0.00 0.00 0.00 0.00 0.00 0.01 0.00 0.00 0.00 0.00 0.00 0.00 0.00 0.01 0.01 0.01 0.01 0.02 0.03 0.02 0.02 0.02 0.02 0.03 0.04
0.13 0.11 0.12 0.10 0.08 0.04 0.03 0.03 0.04 0.02 0.02 0.02 0.02 0.02 0.01 0.00 0.00 0.00 0.00 0.00 0.00 0.00 0.00 0.00 0.00 0.00 0.00 0.00 0.00 0.00 0.00 0.00 0.00 0.00 0.01 0.01 0.01 0.01 0.01 0.01 0.01 0.02 0.02
0.13 0.11 0.09 0.08 0.06 0.03 0.02 0.02 0.03 0.02 0.02 0.02 0.02 0.01 0.01 0.00 0.00 0.00 0.00 0.00 0.00 0.00 0.00 0.00 0.00 0.00 0.00 0.00 0.00 0.00 0.00 0.00 0.00 0.00 0.00 0.00 0.00 0.00 0.01 0.01 0.01 0.02 0.02
0.10 0.11 0.08 0.06 0.05 0.02 0.01 0.02 0.01 0.01 0.01 0.02 0.01 0.01 0.00 0.00 0.00 0.00 0.00 0.00 0.00 0.00 0.00 0.00 0.00 0.00 0.00 0.00 0.00 0.00 0.00 0.00 0.00 0.00 0.00 0.00 0.00 0.00 0.00 0.01 0.01 0.01 0.01
MSLP
1012.10 1012.01 1012.04 1012.20 1012.47 1012.77 1013.06 1013.29 1013.44 1013.52 1013.55 1013.59 1013.66 1013.81 1014.03 1014.28 1014.56 1014.79 1014.96 1015.04 1015.03 1014.96 1014.86 1014.78 1014.76 1014.79 1014.90 1015.05 1015.23 1015.39 1015.53 1015.63 1015.69 1015.72 1015.76 1015.81 1015.89 1016.01 1016.15 1016.31 1016.47 1016.62 1016.77
1011.77 1011.79 1011.93 1012.18 1012.51 1012.84 1013.14 1013.34 1013.47 1013.51 1013.51 1013.54 1013.63 1013.79 1014.04 1014.34 1014.64 1014.90 1015.08 1015.16 1015.16 1015.10 1015.03 1014.97 1014.97 1015.04 1015.16 1015.32 1015.47 1015.61 1015.71 1015.77 1015.80 1015.83 1015.87 1015.94 1016.05 1016.19 1016.35 1016.53 1016.70 1016.85 1017.00
1011.45 1011.56 1011.78 1012.11 1012.48 1012.85 1013.16 1013.37 1013.48 1013.51 1013.52 1013.54 1013.64 1013.82 1014.08 1014.39 1014.69 1014.95 1015.11 1015.20 1015.20 1015.16 1015.11 1015.10 1015.15 1015.24 1015.39 1015.55 1015.69 1015.81 1015.88 1015.92 1015.95 1015.98 1016.04 1016.14 1016.27 1016.44 1016.63 1016.81 1016.98 1017.14 1017.28
1011.19 1011.36 1011.64 1012.02 1012.43 1012.84 1013.16 1013.39 1013.50 1013.54 1013.55 1013.59 1013.70 1013.89 1014.15 1014.44 1014.72 1014.95 1015.10 1015.17 1015.18 1015.16 1015.16 1015.19 1015.28 1015.42 1015.59 1015.76 1015.91 1016.01 1016.07 1016.11 1016.14 1016.19 1016.28 1016.41 1016.58 1016.77 1016.97 1017.16 1017.33 1017.47 1017.60
1011.05 1011.26 1011.57 1011.97 1012.41 1012.82 1013.16 1013.40 1013.53 1013.58 1013.61 1013.67 1013.79 1013.98 1014.23 1014.50 1014.75 1014.95 1015.07 1015.13 1015.14 1015.15 1015.18 1015.27 1015.41 1015.59 1015.78 1015.97 1016.11 1016.22 1016.28 1016.33 1016.38 1016.46 1016.58 1016.74 1016.94 1017.16 1017.36 1017.54 1017.70 1017.83 1017.95
1011.08 1011.28 1011.60 1012.00 1012.44 1012.86 1013.19 1013.43 1013.56 1013.63 1013.67 1013.75 1013.89 1014.08 1014.33 1014.58 1014.80 1014.97 1015.07 1015.12 1015.14 1015.17 1015.23 1015.36 1015.54 1015.75 1015.97 1016.17 1016.32 1016.43 1016.50 1016.56 1016.64 1016.75 1016.91 1017.11 1017.34 1017.56 1017.77 1017.94 1018.08 1018.19 1018.30
1011.27 1011.46 1011.77 1012.16 1012.59 1012.97 1013.28 1013.49 1013.61 1013.68 1013.74 1013.83 1013.98 1014.19 1014.44 1014.68 1014.89 1015.04 1015.13 1015.17 1015.19 1015.24 1015.34 1015.49 1015.70 1015.93 1016.16 1016.36 1016.51 1016.62 1016.70 1016.78 1016.89 1017.04 1017.23 1017.46 1017.71 1017.94 1018.14 1018.30 1018.42 1018.53 1018.63
1011.58 1011.77 1012.07 1012.45 1012.84 1013.19 1013.45 1013.61 1013.70 1013.74 1013.79 1013.90 1014.07 1014.30 1014.56 1014.82 1015.03 1015.17 1015.25 1015.29 1015.32 1015.38 1015.49 1015.66 1015.88 1016.11 1016.34 1016.54 1016.68 1016.79 1016.88 1016.97 1017.10 1017.28 1017.50 1017.76 1018.01 1018.25 1018.45 1018.59 1018.71 1018.80 1018.90
1011.94 1012.15 1012.46 1012.82 1013.18 1013.48 1013.68 1013.78 1013.81 1013.82 1013.86 1013.97 1014.16 1014.41 1014.70 1014.98 1015.20 1015.36 1015.44 1015.48 1015.52 1015.57 1015.68 1015.85 1016.06 1016.29 1016.51 1016.68 1016.82 1016.92 1017.01 1017.11 1017.25 1017.45 1017.69 1017.96 1018.22 1018.47 1018.66 1018.80 1018.91 1019.01 1019.11
1012.24 1012.50 1012.84 1013.22 1013.55 1013.80 1013.94 1013.97 1013.95 1013.92 1013.94 1014.05 1014.26 1014.54 1014.86 1015.16 1015.41 1015.58 1015.67 1015.71 1015.73 1015.79 1015.89 1016.04 1016.24 1016.45 1016.65 1016.81 1016.92 1017.02 1017.10 1017.20 1017.35 1017.55 1017.79 1018.07 1018.34 1018.58 1018.78 1018.92 1019.04 1019.14 1019.25
1012.40 1012.73 1013.13 1013.54 1013.88 1014.10 1014.19 1014.17 1014.09 1014.03 1014.04 1014.16 1014.38 1014.69 1015.04 1015.36 1015.63 1015.81 1015.90 1015.94 1015.96 1016.00 1016.09 1016.22 1016.40 1016.60 1016.78 1016.92 1017.03 1017.10 1017.18 1017.27 1017.41 1017.60 1017.84 1018.10 1018.36 1018.60 1018.81 1018.97 1019.10 1019.22 1019.35
1012.35 1012.77 1013.25 1013.71 1014.07 1014.29 1014.36 1014.32 1014.22 1014.15 1014.16 1014.28 1014.53 1014.86 1015.22 1015.56 1015.84 1016.02 1016.11 1016.14 1016.16 1016.19 1016.26 1016.39 1016.55 1016.73 1016.91 1017.04 1017.14 1017.21 1017.27 1017.34 1017.46 1017.63 1017.84 1018.08 1018.33 1018.57 1018.78 1018.96 1019.11 1019.26 1019.42
1012.08 1012.59 1013.15 1013.67 1014.08 1014.33 1014.42 1014.39 1014.31 1014.25 1014.28 1014.42 1014.68 1015.03 1015.40 1015.74 1016.02 1016.19 1016.28 1016.31 1016.32 1016.34 1016.41 1016.53 1016.70 1016.88 1017.05 1017.19 1017.28 1017.35 1017.40 1017.45 1017.54 1017.67 1017.84 1018.05 1018.28 1018.50 1018.72 1018.91 1019.09 1019.28 1019.47
1011.63 1012.22 1012.85 1013.44 1013.90 1014.20 1014.35 1014.37 1014.34 1014.33 1014.40 1014.57 1014.85 1015.20 1015.56 1015.89 1016.15 1016.32 1016.40 1016.42 1016.43 1016.46 1016.54 1016.67 1016.84 1017.03 1017.22 1017.36 1017.47 1017.53 1017.57 1017.60 1017.66 1017.74 1017.87 1018.03 1018.23 1018.43 1018.64 1018.85 1019.06 1019.28 1019.50
1011.12 1011.75 1012.42 1013.05 1013.57 1013.93 1014.15 1014.26 1014.32 1014.39 1014.51 1014.72 1015.02 1015.35 1015.70 1016.00 1016.23 1016.39 1016.46 1016.49 1016.52 1016.56 1016.66 1016.80 1016.99 1017.20 1017.40 1017.56 1017.68 1017.75 1017.78 1017.79 1017.81 1017.86 1017.93 1018.05 1018.20 1018.38 1018.58 1018.79 1019.02 1019.26 1019.52
1010.66 1011.28 1011.96 1012.60 1013.15 1013.58 1013.89 1014.10 1014.27 1014.43 1014.63 1014.88 1015.17 1015.49 1015.80 1016.07 1016.27 1016.41 1016.48 1016.53 1016.58 1016.65 1016.78 1016.95 1017.15 1017.37 1017.58 1017.76 1017.89 1017.96 1017.99 1018.00 1017.99 1017.99 1018.03 1018.09 1018.20 1018.34 1018.52 1018.73 1018.97 1019.22 1019.49
1010.39 1010.95 1011.57 1012.17 1012.73 1013.22 1013.61 1013.94 1014.22 1014.48 1014.75 1015.03 1015.32 1015.61 1015.88 1016.10 1016.28 1016.41 1016.49 1016.57 1016.65 1016.76 1016.91 1017.10 1017.31 1017.54 1017.75 1017.93 1018.07 1018.15 1018.18 1018.18 1018.16 1018.14 1018.14 1018.16 1018.22 1018.33 1018.47 1018.66 1018.89 1019.15 1019.42
1010.37 1010.82 1011.33 1011.88 1012.41 1012.92 1013.39 1013.82 1014.21 1014.57 1014.90 1015.20 1015.48 1015.73 1015.95 1016.13 1016.28 1016.41 1016.52 1016.63 1016.75 1016.90 1017.08 1017.27 1017.48 1017.70 1017.90 1018.07 1018.20 1018.28 1018.33 1018.34 1018.32 1018.29 1018.26 1018.25 1018.27 1018.33 1018.44 1018.59 1018.79 1019.03 1019.29
1010.62 1010.92 1011.30 1011.74 1012.23 1012.75 1013.27 1013.78 1014.27 1014.70 1015.07 1015.39 1015.64 1015.85 1016.02 1016.17 1016.30 1016.44 1016.58 1016.74 1016.91 1017.10 1017.29 1017.48 1017.67 1017.85 1018.02 1018.16 1018.28 1018.37 1018.43 1018.46 1018.46 1018.43 1018.40 1018.37 1018.35 1018.36 1018.42 1018.52 1018.68 1018.88 1019.12
1011.08 1011.23 1011.46 1011.78 1012.20 1012.70 1013.26 1013.83 1014.39 1014.88 1015.28 1015.60 1015.83 1016.00 1016.12 1016.24 1016.37 1016.53 1016.72 1016.92 1017.15 1017.36 1017.56 1017.74 1017.89 1018.03 1018.14 1018.25 1018.34 1018.43 1018.51 1018.57 1018.59 1018.59 1018.56 1018.52 1018.47 1018.43 1018.43 1018.47 1018.58 1018.73 1018.93
1011.66 1011.66 1011.75 1011.96 1012.30 1012.77 1013.34 1013.96 1014.56 1015.09 1015.52 1015.83 1016.04 1016.17 1016.26 1016.36 1016.50 1016.69 1016.92 1017.19 1017.45 1017.70 1017.90 1018.05 1018.16 1018.23 1018.28 1018.35 1018.42 1018.51 1018.61 1018.70 1018.77 1018.79 1018.78 1018.72 1018.64 1018.55 1018.49 1018.47 1018.50 1018.60 1018.75
1012.24 1012.13 1012.09 1012.20 1012.47 1012.91 1013.49 1014.13 1014.77 1015.33 1015.77 1016.07 1016.26 1016.36 1016.44 1016.54 1016.69 1016.92 1017.20 1017.52 1017.83 1018.09 1018.28 1018.41 1018.46 1018.47 1018.47 1018.49 1018.54 1018.64 1018.76 1018.89 1018.99 1019.05 1019.05 1018.99 1018.88 1018.75 1018.62 1018.52 1018.48 1018.52 1018.62
1012.73 1012.54 1012.42 1012.44 1012.66 1013.08 1013.65 1014.31 1014.96 1015.54 1015.99 1016.29 1016.47 1016.57 1016.65 1016.75 1016.93 1017.20 1017.53 1017.89 1018.23 1018.51 1018.70 1018.79 1018.79 1018.76 1018.71 1018.70 1018.73 1018.83 1018.97 1019.14 1019.28 1019.37 1019.39 1019.33 1019.19 1019.01 1018.82 1018.66 1018.54 1018.51 1018.56
1013.07 1012.84 1012.67 1012.65 1012.84 1013.23 1013.80 1014.47 1015.13 1015.73 1016.19 1016.49 1016.67 1016.78 1016.86 1016.99 1017.20 1017.50 1017.87 1018.26 1018.62 1018.91 1019.09 1019.15 1019.13 1019.05 1018.98 1018.94 1018.98 1019.09 1019.26 1019.45 1019.63 1019.75 1019.78 1019.71 1019.55 1019.34 1019.09 1018.86 1018.69 1018.59 1018.58
1013.24 1013.02 1012.84 1012.81 1012.98 1013.36 1013.93 1014.59 1015.27 1015.87 1016.34 1016.66 1016.86 1016.97 1017.08 1017.23 1017.46 1017.78 1018.17 1018.58 1018.95 1019.24 1019.41 1019.46 1019.42 1019.33 1019.24 1019.21 1019.25 1019.38 1019.57 1019.79 1019.99 1020.14 1020.18 1020.11 1019.94 1019.70 1019.42 1019.14 1018.91 1018.76 1018.69
1013.29 1013.11 1012.95 1012.93 1013.10 1013.48 1014.03 1014.69 1015.36 1015.97 1016.46 1016.79 1017.01 1017.15 1017.28 1017.45 1017.70 1018.03 1018.42 1018.83 1019.19 1019.47 1019.63 1019.68 1019.63 1019.54 1019.47 1019.44 1019.50 1019.65 1019.87 1020.11 1020.34 1020.49 1020.55 1020.48 1020.32 1020.07 1019.77 1019.47 1019.20 1018.99 1018.87
Thickness
5788 5790 5789 5788 5785 5783 5781 5780 5778 5777 5776 5775 5773 5771 5769 5768 5766 5765 5763 5762 5760 5759 5758 5757 5756 5755 5754 5754 5752 5752 5751 5749 5748 5747 5746 5744 5743 5742 5741 5739 5738 5737 5736
5795 5791 5789 5787 5785 5782 5780 5778 5777 5775 5774 5773 5772 5770 5768 5766 5764 5763 5761 5760 5759 5758 5757 5756 5755 5754 5753 5752 5751 5750 5749 5748 5747 5746 5744 5743 5742 5741 5739 5738 5737 5736 5734
5795 5791 5788 5786 5783 5781 5779 5777 5775 5774 5772 5771 5770 5768 5767 5765 5763 5761 5760 5758 5757 5756 5755 5754 5753 5752 5751 5750 5749 5748 5747 5746 5745 5744 5743 5742 5741 5739 5738 5737 5736 5735 5733
5795 5791 5788 5785 5782 5780 5778 5776 5774 5772 5771 5769 5768 5767 5765 5763 5761 5760 5758 5757 5756 5754 5753 5752 5751 5750 5749 5748 5747 5746 5745 5745 5743 5742 5741 5741 5740 5738 5737 5736 5735 5734 5733
5792 5789 5786 5783 5781 5778 5776 5775 5772 5771 5769 5767 5766 5765 5763 5762 5760 5758 5757 5755 5754 5753 5751 5750 5749 5748 5747 5746 5745 5745 5744 5743 5743 5741 5740 5740 5738 5737 5736 5735 5734 5733 5732
5789 5787 5784 5781 5779 5777 5775 5773 5771 5769 5767 5766 5764 5763 5761 5760 5758 5756 5755 5753 5752 5751 5749 5748 5747 5746 5745 5744 5744 5743 5743 5743 5742 5740 5739 5738 5737 5736 5735 5734 5733 5732 5731
5786 5783 5781 5779 5777 5775 5773 5771 5769 5767 5766 5764 5763 5761 5760 5758 5757 5755 5753 5751 5749 5748 5747 5746 5745 5744 5743 5742 5742 5742 5741 5741 5740 5738 5737 5736 5735 5734 5734 5732 5731 5730 5729
5783 5781 5778 5776 5774 5772 5770 5769 5767 5765 5764 5763 5761 5760 5758 5756 5755 5753 5751 5749 5748 5747 5745 5744 5743 5742 5742 5741 5740 5740 5739 5739 5737 5736 5734 5734 5733 5732 5732 5731 5729 5728 5728
5779 5777 5775 5773 5771 5769 5768 5766 5765 5763 5762 5761 5759 5758 5756 5755 5753 5751 5749 5747 5746 5745 5743 5742 5741 5740 5740 5739 5738 5738 5737 5737 5735 5734 5732 5732 5731 5730 5730 5729 5728 5727 5726
5775 5774 5772 5769 5768 5766 5765 5764 5763 5761 5760 5759 5758 5756 5754 5752 5751 5749 5747 5745 5744 5742 5741 5740 5739 5738 5737 5736 5736 5735 5735 5734 5733 5732 5731 5730 5729 5728 5728 5727 5727 5726 5725
5769 5769 5768 5766 5764 5763 5762 5761 5760 5759 5758 5757 5756 5754 5752 5750 5748 5746 5745 5743 5742 5740 5739 5738 5737 5736 5735 5734 5734 5733 5732 5732 5731 5730 5729 5729 5728 5727 5726 5726 5725 5724 5724
5762 5763 5764 5763 5762 5761 5760 5758 5757 5757 5756 5754 5753 5751 5750 5748 5746 5744 5743 5741 5740 5738 5737 5736 5735 5734 5733 5732 5732 5731 5730 5730 5730 5729 5728 5727 5727 5726 5725 5724 5724 5723 5722
5762 5761 5761 5760 5760 5759 5758 5755 5754 5754 5753 5752 5750 5749 5747 5745 5744 5742 5741 5739 5738 5737 5735 5734 5733 5732 5731 5730 5729 5729 5728 5728 5728 5728 5727 5726 5725 5724 5723 5723 5722 5721 5721
5757 5758 5758 5757 5757 5756 5755 5754 5752 5752 5751 5749 5748 5747 5745 5743 5742 5740 5739 5737 5736 5735 5734 5732 5731 5730 5729 5728 5728 5727 5726 5726 5726 5726 5725 5724 5723 5722 5721 5721 5720 5720 5720
5753 5755 5755 5755 5755 5753 5752 5752 5751 5750 5749 5748 5747 5745 5744 5742 5740 5739 5737 5735 5734 5733 5732 5731 5730 5728 5727 5726 5726 5725 5724 5724 5724 5724 5722 5721 5721 5721 5720 5719 5718 5717 5717
5750 5751 5751 5752 5753 5752 5750 5751 5750 5749 5747 5746 5746 5744 5743 5741 5740 5738 5736 5734 5733 5733 5731 5730 5728 5727 5726 5725 5724 5723 5723 5722 5722 5721 5721 5720 5719 5719 5718 5717 5716 5716 5715
5749 5750 5749 5750 5750 5750 5749 5749 5748 5747 5746 5745 5744 5743 5742 5740 5738 5737 5735 5733 5732 5732 5730 5729 5727 5726 5725 5724 5722 5722 5721 5720 5720 5720 5719 5718 5718 5717 5717 5716 5715 5714 5714
5747 5746 5748 5750 5748 5749 5748 5747 5746 5745 5744 5743 5742 5741 5740 5738 5737 5735 5733 5732 5731 5730 5729 5727 5725 5723 5722 5721 5720 5719 5719 5719 5718 5718 5717 5716 5716 5715 5715 5714 5713 5712 5711
5744 5743 5745 5747 5747 5747 5746 5744 5743 5742 5742 5741 5741 5739 5738 5737 5736 5734 5732 5730 5730 5728 5727 5726 5723 5722 5719 5718 5718 5718 5718 5717 5717 5716 5715 5714 5714 5713 5713 5712 5711 5710 5710
5742 5742 5744 5745 5744 5745 5743 5741 5739 5738 5739 5739 5738 5737 5737 5735 5734 5732 5730 5729 5728 5726 5724 5723 5721 5720 5718 5717 5717 5716 5716 5716 5715 5714 5714 5713 5712 5711 5711 5710 5709 5708 5708
5738 5740 5740 5740 5741 5741 5739 5736 5734 5733 5734 5735 5736 5735 5735 5734 5732 5731 5729 5727 5726 5724 5722 5722 5720 5718 5716 5715 5712 5710 5711 5713 5712 5712 5712 5711 5710 5709 5708 5707 5707 5706 5706
5736 5738 5738 5739 5739 5739 5738 5737 5736 5734 5733 5734 5734 5733 5733 5732 5731 5730 5727 5725 5724 5722 5720 5720 5718 5715 5713 5713 5709 5703 5699 5701 5706 5709 5708 5708 5707 5707 5706 5705 5704 5703 5703
5734 5736 5738 5737 5737 5737 5736 5735 5734 5731 5730 5729 5729 5729 5731 5731 5730 5729 5726 5724 5722 5721 5718 5717 5716 5713 5709 5710 5709 5704 5696 5692 5695 5700 5703 5703 5703 5703 5702 5702 5701 5701 5700
5735 5737 5737 5737 5735 5735 5736 5735 5732 5729 5726 5727 5728 5729 5729 5729 5729 5727 5725 5723 5721 5719 5717 5716 5714 5712 5709 5705 5706 5705 5702 5698 5692 5690 5694 5697 5699 5699 5699 5699 5698 5698 5697
5736 5736 5735 5735 5735 5735 5735 5735 5732 5729 5729 5728 5728 5727 5727 5727 5727 5726 5724 5722 5719 5717 5716 5714 5712 5710 5708 5704 5702 5701 5699 5696 5693 5688 5684 5687 5691 5694 5695 5696 5695 5695 5694
5736 5736 5735 5734 5733 5734 5734 5734 5733 5730 5728 5726 5725 5724 5724 5724 5724 5724 5723 5720 5718 5716 5714 5712 5710 5708 5705 5702 5700 5698 5695 5692 5689 5686 5681 5680 5681 5686 5690 5691 5691 5691 5690